Location: Delettes
(50.6178°N, 2.2123°E)
Time: 19:57:52
(UTC+00:00)

Okean 1-7 - Pass Details

Date: 27 February 2020
Orbit: 592 x 617 km, 82.5° (Epoch: 03 April)

Event Time Altitude Azimuth Distance (km) Brightness Sun altitude
Rises 18:40:15 0° 350° (N) 2,865 6.6 -12.2°
Reaches altitude 10° 18:42:28 10° 351° (N) 1,961 5.8 -12.5°
Maximum altitude 18:46:49 82° 80° (E) 619 2.9 -13.2°
Drops below altitude 10° 18:51:10 10° 168° (SSE) 1,961 5.5 -13.9°
Sets 18:53:23 0° 169° (S) 2,864 6.3 -14.3°
